Location: Columbia
(38.9520°N, 92.3340°W)
Time: 06:34:35
(UTC-05:00)

Cosmos 1633 - Visible Passes

Search period start: 28 June 2016 00:00
Search period end: 08 July 2016 00:00
Orbit: 475 x 494 km, 82.5° (Epoch: 27 June)

Date Brightness Start Highest point End Pass type
(mag) Time Alt. Az. Time Alt. Az. Time Alt. Az.
28 Jun 5.4 02:49:38 10° E 02:50:12 10° E 02:50:47 10° ENE visible
28 Jun 3.2 04:23:10 24° SW 04:24:49 38° W 04:28:14 10° N visible
29 Jun 2.5 03:58:53 39° SSW 04:00:04 68° W 04:03:41 10° N visible
30 Jun 2.7 03:34:35 50° SSE 03:35:21 68° E 03:38:59 10° NNE visible
01 Jul 3.5 03:10:16 37° ESE 03:10:41 38° E 03:14:04 10° NNE visible
01 Jul 4.8 04:44:53 10° W 04:45:57 11° WNW 04:47:01 10° NW visible
02 Jul 4.4 02:45:55 23° E 02:46:03 23° E 02:48:59 10° NE visible
02 Jul 4.3 04:20:18 17° W 04:21:04 18° WNW 04:23:35 10° NNW visible
03 Jul 5.1 02:21:33 14° E 02:21:33 14° E 02:23:29 10° NE visible
03 Jul 3.7 03:55:56 28° W 03:56:13 28° WNW 03:59:25 10° NNW visible
04 Jul 3.0 03:31:33 47° WNW 03:31:33 47° WNW 03:34:58 10° N visible
05 Jul 2.8 03:07:09 66° N 03:07:09 66° N 03:10:21 10° N visible
06 Jul 3.6 02:42:44 44° NE 02:42:44 44° NE 02:45:33 10° NNE visible
07 Jul 4.4 02:18:18 27° ENE 02:18:18 27° ENE 02:20:35 10° NNE visible
07 Jul 4.8 03:52:40 13° WNW 03:52:40 13° WNW 03:54:17 10° NW visible
